CW8095 Weather Reports


time (UTC)temp
C
wind
direction
speed
KPH
gust
KPH
rain 1hr
cm
rain 24hr
cm
rain mn
cm
humidity
%
barometer
mb
20260906135522 25 109 3.2 6.4 0.00 0.00 0.00 65 1014.5
20260906134517 23 104 3.2 6.4 0.00 0.00 0.00 68 1014.4
20260906133527 23 108 1.6 3.2 0.00 0.00 0.00 70 1014.4
20260906132541 22 138 1.6 6.4 0.00 0.00 0.00 72 1014.3
20260906131536 22 106 1.6 3.2 0.00 0.00 0.00 74 1014.4
20260906130525 22 0.0 0.0 0.00 0.00 0.00 73 1014.3
20260906125520 22 78 0.0 3.2 0.00 0.00 0.00 73 1014.1
20260906124530 22 127 0.0 3.2 0.00 0.00 0.00 74 1014.0
20260906123545 21 128 1.6 3.2 0.00 0.00 0.00 74 1014.0
20260906122519 21 119 1.6 4.8 0.00 0.00 0.00 74 1013.9
20260906121529 21 121 1.6 3.2 0.00 0.00 0.00 74 1013.9
20260906120524 21 120 1.6 4.8 0.00 0.00 0.00 74 1013.8
20260906115517 21 134 1.6 3.2 0.00 0.00 0.00 73 1013.8
20260906114527 22 139 1.6 4.8 0.00 0.00 0.00 73 1013.6
20260906113522 22 127 3.2 4.8 0.00 0.00 0.00 74 1013.6
20260906112517 22 137 1.6 3.2 0.00 0.00 0.00 73 1013.4
20260906111527 22 138 0.0 1.6 0.00 0.00 0.00 73 1013.4
20260906110521 22 130 0.0 3.2 0.00 0.00 0.00 73 1013.3
20260906105516 22 123 0.0 1.6 0.00 0.00 0.00 73 1013.2
20260906104526 21 115 1.6 3.2 0.00 0.00 0.00 73 1013.5
20260906103540 22 0.0 0.0 0.00 0.00 0.00 73 1013.2
20260906102530 22 155 0.0 1.6 0.00 0.00 0.00 73 1013.1
20260906101525 22 0.0 0.0 0.00 0.00 0.00 72 1013.1
20260906100519 22 0.0 0.0 0.00 0.00 0.00 70 1012.9
20260906095530 22 0.0 0.0 0.00 0.00 0.00 69 1012.9
20260906094525 22 155 0.0 3.2 0.00 0.00 0.00 69 1012.7
20260906093519 22 155 0.0 3.2 0.00 0.00 0.00 69 1012.5
20260906092529 22 155 0.0 1.6 0.00 0.00 0.00 69 1012.4
20260906091525 22 155 0.0 3.2 0.00 0.00 0.00 69 1012.6
20260906090520 22 155 1.6 3.2 0.00 0.00 0.00 68 1012.6
20260906085517 23 155 1.6 4.8 0.00 0.00 0.00 68 1012.3
20260906084521 23 153 0.0 3.2 0.00 0.00 0.00 68 1012.5
20260906083530 23 163 0.0 4.8 0.00 0.00 0.00 68 1012.4
20260906082525 23 159 1.6 6.4 0.00 0.00 0.00 68 1012.5
20260906081520 23 168 1.6 4.8 0.00 0.00 0.00 67 1012.6
20260906080529 23 144 1.6 4.8 0.00 0.00 0.00 67 1012.7
20260906075525 23 154 1.6 3.2 0.00 0.00 0.00 67 1012.6
20260906074520 23 158 1.6 6.4 0.00 0.00 0.00 66 1012.7
20260906073516 23 158 1.6 4.8 0.00 0.00 0.00 66 1012.6
20260906072525 23 159 3.2 9.7 0.00 0.00 0.00 66 1012.7
20260906071519 23 172 3.2 11.3 0.00 0.00 0.00 66 1012.7
20260906070526 24 151 3.2 9.7 0.00 0.00 0.00 66 1012.9
20260906065524 24 162 4.8 9.7 0.00 0.00 0.00 65 1012.9
20260906064530 24 156 4.8 11.3 0.00 0.00 0.00 65 1013.0
20260906063529 24 155 3.2 9.7 0.00 0.00 0.00 64 1013.1
20260906062531 25 161 3.2 6.4 0.00 0.00 0.00 64 1013.2
20260906061536 25 164 3.2 6.4 0.00 0.00 0.00 64 1013.2
20260906060527 25 161 3.2 9.7 0.00 0.00 0.00 63 1013.2
20260906055516 25 156 3.2 6.4 0.00 0.00 0.00 63 1013.1
20260906054524 25 165 1.6 4.8 0.00 0.00 0.00 62 1013.1
20260906053543 25 158 1.6 6.4 0.00 0.00 0.00 62 1013.0
20260906052520 25 158 3.2 6.4 0.00 0.00 0.00 63 1012.8
20260906051551 25 160 3.2 9.7 0.00 0.00 0.00 62 1012.8
20260906050528 25 165 3.2 6.4 0.00 0.00 0.00 62 1013.0
20260906045554 25 167 3.2 9.7 0.00 0.00 0.00 62 1013.0
20260906044523 26 162 3.2 6.4 0.00 0.00 0.00 61 1012.9
20260906043558 26 154 3.2 11.3 0.00 0.00 0.00 60 1012.9
20260906042528 26 143 1.6 6.4 0.00 0.00 0.00 60 1013.0
20260906041536 26 153 3.2 9.7 0.00 0.00 0.00 59 1012.9
20260906040528 26 144 1.6 6.4 0.00 0.00 0.00 58 1012.8
20260906035525 26 160 1.6 9.7 0.00 0.00 0.00 58 1012.7
20260906034540 26 154 1.6 4.8 0.00 0.00 0.00 57 1012.9
20260906033552 26 156 1.6 6.4 0.00 0.00 0.00 56 1012.9
20260906032526 26 149 3.2 6.4 0.00 0.00 0.00 56 1012.9
20260906031522 27 135 1.6 6.4 0.00 0.00 0.00 55 1012.9
20260906030528 27 138 3.2 9.7 0.00 0.00 0.00 55 1012.9
20260906025524 27 146 3.2 9.7 0.00 0.00 0.00 54 1012.8
20260906024518 27 118 4.8 12.9 0.00 0.00 0.00 54 1012.8
20260906023541 27 137 4.8 12.9 0.00 0.00 0.00 53 1012.7
20260906022524 27 132 6.4 11.3 0.00 0.00 0.00 53 1012.4
20260906021518 27 132 6.4 17.7 0.00 0.00 0.00 52 1012.3
20260906020548 27 131 6.4 12.9 0.00 0.00 0.00 52 1012.1
20260906015522 27 133 4.8 12.9 0.00 0.00 0.00 51 1012.0
20260906014537 27 136 8.0 17.7 0.00 0.00 0.00 51 1011.8
20260906013526 28 135 9.7 12.9 0.00 0.00 0.00 51 1011.7
20260906012527 28 118 9.7 25.7 0.00 0.00 0.00 50 1011.5
20260906011521 28 137 9.7 17.7 0.00 0.00 0.00 48 1011.3
20260906010516 30 133 9.7 22.5 0.00 0.00 0.00 46 1011.4
20260906005527 30 127 9.7 25.7 0.00 0.00 0.00 44 1011.3
20260906004522 30 119 12.9 22.5 0.00 0.00 0.00 43 1011.4
20260906003537 31 132 9.7 17.7 0.00 0.00 0.00 42 1011.2
20260906002527 32 122 14.5 25.7 0.00 0.00 0.00 36 1011.0
20260906001543 33 123 6.4 11.3 0.00 0.00 0.00 33 1010.9
20260906000518 33 113 8.0 14.5 0.00 0.00 0.00 32 1010.8
20260905235528 33 116 9.7 16.1 0.00 0.00 0.00 31 1010.8
20260905234523 35 101 9.7 16.1 0.00 0.00 0.00 30 1010.6
20260905233518 35 117 4.8 11.3 0.00 0.00 0.00 29 1010.6
20260905232548 35 129 1.6 4.8 0.00 0.00 0.00 28 1010.5
20260905231524 36 73 6.4 16.1 0.00 0.00 0.00 27 1010.6
20260905230519 36 119 3.2 9.7 0.00 0.00 0.00 26 1010.5
20260905225549 36 326 1.6 4.8 0.00 0.00 0.00 27 1010.4
20260905224524 36 135 3.2 6.4 0.00 0.00 0.00 26 1010.6
20260905223519 36 85 4.8 14.5 0.00 0.00 0.00 27 1010.5
20260905222529 36 155 1.6 9.7 0.00 0.00 0.00 26 1010.5
20260905221524 37 98 4.8 11.3 0.00 0.00 0.00 26 1010.4
20260905220539 36 100 3.2 11.3 0.00 0.00 0.00 28 1010.6
20260905215530 36 154 1.6 3.2 0.00 0.00 0.00 28 1010.8
20260905214525 37 150 1.6 6.4 0.00 0.00 0.00 27 1010.8
20260905213520 37 144 3.2 9.7 0.00 0.00 0.00 27 1010.9
20260905212530 37 109 3.2 9.7 0.00 0.00 0.00 27 1011.1
20260905211525 37 112 3.2 9.7 0.00 0.00 0.00 28 1011.3
20260905210520 36 178 3.2 11.3 0.00 0.00 0.00 28 1011.3
20260905205515 36 311 3.2 11.3 0.00 0.00 0.00 29 1011.4
20260905204606 36 265 1.6 4.8 0.00 0.00 0.00 30 1011.6
20260905203552 35 293 3.2 6.4 0.00 0.00 0.00 31 1011.7
20260905202515 36 297 3.2 6.4 0.00 0.00 0.00 29 1011.9
20260905201526 35 60 3.2 4.8 0.00 0.00 0.00 32 1012.0
20260905201049 34 144 1.6 3.2 0.00 0.00 0.00 32 1012.1
20260905200024 35 114 3.2 6.4 0.00 0.00 0.00 31 1012.3
20260905195020 35 138 1.6 4.8 0.00 0.00 0.00 31 1012.5
20260905194016 36 175 3.2 11.3 0.00 0.00 0.00 30 1012.6
20260905193026 37 160 3.2 9.7 0.00 0.00 0.00 28 1012.7
20260905192042 37 141 4.8 12.9 0.00 0.00 0.00 28 1012.8
20260905191017 36 117 3.2 9.7 0.00 0.00 0.00 30 1013.0
20260905190048 36 126 3.2 6.4 0.00 0.00 0.00 31 1013.2
20260905185023 34 247 4.8 6.4 0.00 0.00 0.00 33 1013.4
20260905184019 35 208 1.6 4.8 0.00 0.00 0.00 32 1013.7
20260905183029 36 146 3.2 9.7 0.00 0.00 0.00 30 1013.7
20260905182025 36 159 1.6 9.7 0.00 0.00 0.00 30 1013.9
20260905181020 36 103 4.8 12.9 0.00 0.00 0.00 31 1014.1
20260905180036 36 141 6.4 17.7 0.00 0.00 0.00 31 1014.2
20260905175025 35 153 3.2 6.4 0.00 0.00 0.00 32 1014.4
20260905174020 35 105 3.2 9.7 0.00 0.00 0.00 32 1014.5
20260905173116 35 128 3.2 9.7 0.00 0.00 0.00 32 1014.7
20260905172026 35 178 3.2 14.5 0.00 0.00 0.00 34 1014.7
20260905171022 35 143 4.8 12.9 0.00 0.00 0.00 32 1014.8
20260905170018 34 98 4.8 6.4 0.00 0.00 0.00 34 1015.0
20260905165028 34 139 3.2 11.3 0.00 0.00 0.00 35 1014.9
20260905164023 33 149 3.2 9.7 0.00 0.00 0.00 35 1015.0
20260905163018 33 157 1.6 9.7 0.00 0.00 0.00 36 1015.0
20260905162029 33 124 3.2 9.7 0.00 0.00 0.00 37 1015.0
20260905161024 32 263 1.6 3.2 0.00 0.00 0.00 40 1014.9
20260905160020 32 221 1.6 3.2 0.00 0.00 0.00 40 1014.9
20260905155016 31 229 1.6 6.4 0.00 0.00 0.00 42 1014.9
20260905154026 31 95 3.2 4.8 0.00 0.00 0.00 42 1014.8
20260905153042 31 153 3.2 6.4 0.00 0.00 0.00 43 1014.9
20260905152017 30 244 1.6 3.2 0.00 0.00 0.00 46 1014.9
20260905151028 29 184 3.2 6.4 0.00 0.00 0.00 48 1014.8
20260905150023 29 167 1.6 6.4 0.00 0.00 0.00 49 1014.8
20260905145019 28 178 1.6 4.8 0.00 0.00 0.00 52 1015.0
20260905144029 27 264 1.6 4.8 0.00 0.00 0.00 54 1014.9
20260905143025 27 151 1.6 4.8 0.00 0.00 0.00 56 1014.9
20260905142021 26 169 0.0 3.2 0.00 0.00 0.00 59 1014.8
20260905141016 26 161 3.2 9.7 0.00 0.00 0.00 61 1014.9